This is the latest recevied weather packets stored in our database for station/object NW0017. If no packets are shown the sender has not sent any weather packets the latest 10 day(s).
| Time | Temp. | Humidity | Pressure | Rain* | Wind** | Luminosity | Snow |
|---|---|---|---|---|---|---|---|
| 1777623159 | 32.78° C | 75% | 1005.9 hPa | 0 mm | - | 508 W/m² | - |
| 1777623087 | 32.78° C | 76% | 1005.9 hPa | 0 mm | - | 508 W/m² | - |
| 1777623020 | 32.22° C | 74% | 1005.9 hPa | 0 mm | - | 484 W/m² | - |
| 1777622940 | 32.78° C | 74% | 1005.9 hPa | 0 mm | - | 175 W/m² | - |
| 1777622866 | 32.78° C | 75% | 1005.9 hPa | 0 mm | - | 168 W/m² | - |
| 1777614422 | 26.11° C | 99% | 1008.8 hPa | 0 mm | - | 160 W/m² | - |
| 1777614376 | 26.11° C | 99% | 1008.9 hPa | 0 mm | - | 156 W/m² | - |
| 1777614340 | 26.11° C | 99% | 1008.9 hPa | 0 mm | - | 150 W/m² | - |
| 1777614244 | 26.11° C | 99% | 1008.9 hPa | 0 mm | - | 144 W/m² | - |
| 1777614182 | 26.11° C | 99% | 1009 hPa | 0 mm | - | 133 W/m² | - |
| 1777614129 | 26.11° C | 99% | 1009 hPa | 0 mm | - | 123 W/m² | - |
| 1777614062 | 26.67° C | 99% | 1009.1 hPa | 0 mm | - | 110 W/m² | - |
| 1777614002 | 26.67° C | 99% | 1009.1 hPa | 0 mm | - | 96 W/m² | - |
| 1777613942 | 26.67° C | 99% | 1009.1 hPa | 0 mm | - | 83 W/m² | - |
| 1777613889 | 26.67° C | 99% | 1009.1 hPa | 0 mm | - | 75 W/m² | - |
| 1777613827 | 26.67° C | 99% | 1009.2 hPa | 0 mm | - | 67 W/m² | - |
| 1777613784 | 26.67° C | 99% | 1009.2 hPa | 0 mm | - | 62 W/m² | - |
| 1777613720 | 26.67° C | 99% | 1009.2 hPa | 0 mm | - | 52 W/m² | - |
| 1777613617 | 26.67° C | 99% | 1009.4 hPa | 0 mm | - | 42 W/m² | - |
| 1777613554 | 27.22° C | 99% | 1009.4 hPa | 0 mm | - | 37 W/m² | - |
| 1777613494 | 27.22° C | 99% | 1009.4 hPa | 0 mm | - | 36 W/m² | - |
| 1777613479 | 27.22° C | 99% | 1009.5 hPa | 0 mm | - | 35 W/m² | - |
| 1777602444 | 31.67° C | 80% | 1010 hPa | 0 mm | - | 684 W/m² | - |
| 1777602386 | 31.67° C | 80% | 1010 hPa | 0 mm | - | 684 W/m² | - |
| 1777602338 | 31.67° C | 80% | 1010 hPa | 0 mm | - | 675 W/m² | - |
* Rain latest hour (hover to see other rain measurements)
** Current wind speed in m/s (hover to see current wind gust speed)